{"data":{"norad_id":62287,"intl_designator":"2024-237W","name":"STARLINK-33546","alt_names":[],"object_type":"PAYLOAD","status":"ACTIVE","operator":null,"country":"US","launch_date":"2024-12-08","launch_site_code":"AFETR","launch_vehicle":null,"mission":null,"orbit_class":"UNKNOWN","rcs_meters":null,"size_class":null,"mass_kg":null,"dimensions":null,"purposes":["comms"],"wikipedia_slug":null,"has_3d_model":false,"image_url":null,"decayed_at":null,"tle_current":{"epoch":"2026-05-25T00:13:12.718272Z","epoch_age_seconds":70952,"freshness":"FRESH","line1":"1 62287U 24237W   26145.00917498  .00014684  00000+0  54191-3 0  9994","line2":"2 62287  43.0001 145.3743 0001250 272.5267  87.5442 15.27589562 82775","mean_motion":15.27589562,"eccentricity":0.000125,"inclination_deg":43.0001,"raan_deg":145.3743,"arg_perigee_deg":272.5267,"mean_anomaly_deg":87.5442,"bstar":0.00054191,"rev_number":8277,"period_min":94.266158647659,"perigee_km":482.16281943808,"apogee_km":483.87810880411,"semimajor_km":6861.1574641211,"source":"CELESTRAK","updated_at":"2026-05-25T13:38:19.646160Z"}}}